CAPE
1485 1432 983 688 803 884 787 1010 958 1052 458 1459 1532 1428 1367 1145 1446 1416 1025 854 482 229 28 12 30 113 188 0 0 3 63 77 51 64 67 0 0 0
1152 1291 1389 810 1150 849 790 1363 1171 1040 802 1165 1179 1719 1877 1579 1667 1492 1492 1325 736 662 303 46 11 42 165 0 0 0 0 0 0 0 0 0 0 0
1758 1864 1777 1770 1408 910 898 1005 830 1137 558 687 1175 1949 1966 2011 2309 1967 1759 1796 1501 831 284 93 0 39 76 21 0 0 0 0 0 0 0 0 0 0
1766 1357 1537 1229 1687 1718 1292 1435 1388 1275 1336 1396 948 1365 1983 2331 2098 2377 2335 1209 1556 1045 435 339 146 36 31 22 0 0 0 0 0 0 0 0 0 0
1677 1625 1564 1505 1584 1552 1704 1242 1203 1363 1201 1110 897 1277 1318 1907 1945 1982 2214 2131 1634 959 806 651 381 97 30 3 0 0 0 0 0 0 0 0 0 0
1677 1824 1681 1591 1464 1698 1626 1637 1474 1313 1441 997 1107 910 939 1126 1403 967 1100 1719 1653 1008 1097 964 503 209 92 14 0 0 0 0 0 0 0 0 0 0
1733 1949 1862 1914 1590 1585 1608 1558 1275 1288 1005 970 1056 1055 685 860 991 950 881 649 771 977 631 508 714 797 709 118 166 1 0 0 0 0 0 0 0 0
1404 1826 1913 1602 1372 1165 1161 913 802 1469 1580 1317 870 523 1044 1376 819 885 1227 978 829 1312 1205 1092 1151 924 550 914 719 371 44 0 0 0 0 0 0 0
1491 1763 1703 1046 1332 1762 1407 931 623 415 494 1220 1513 1483 1595 1517 1528 1638 1382 1091 965 1057 1210 877 1072 778 571 165 144 72 18 0 0 0 0 0 0 0
1105 1513 1618 1707 1917 1776 1568 1600 1979 1906 1471 944 999 1304 1724 1746 1364 1599 1239 1370 1550 1165 1157 732 697 495 484 432 0 0 0 0 0 0 0 0 0 0
1041 1574 1781 1816 1632 1316 1248 1650 1428 1406 1395 1419 1369 1290 1145 1102 977 959 971 955 986 679 806 662 618 500 468 390 13 0 0 0 0 0 0 0 0 0
1359 1385 1341 1405 1458 1210 1065 1372 1380 1471 1462 1417 1592 1037 655 747 395 727 777 821 954 792 526 555 552 319 3 0 13 13 0 0 0 0 0 0 0 0
1184 1271 1346 1030 703 756 656 1002 1175 1111 1236 1210 1167 1406 1571 1485 1078 714 999 882 634 440 116 77 38 0 0 0 0 0 0 0 0 0 0 0 0 2
961 365 354 568 129 50 244 593 425 332 815 694 697 1018 1270 1113 974 518 240 125 53 33 0 0 0 0 0 0 0 3 0 1 0 1 0 0 1 1
715 341 412 233 117 64 59 60 5 135 300 454 748 881 858 698 528 161 51 3 0 1 0 3 1 2 2 1 1 2 0 0 0 1 0 0 3 3
31 337 261 246 240 67 121 22 93 441 565 645 894 720 722 300 209 118 0 0 0 0 1 2 2 0 1 0 0 1 0 0 0 0 2 0 3 3
479 1075 668 470 319 160 173 165 222 514 541 677 513 434 258 72 0 0 0 0 0 0 0 0 3 2 0 0 0 0 0 0 0 2 0 0 1 2
1066 1139 470 263 271 198 157 92 261 340 344 388 340 265 26 0 0 0 0 0 0 0 0 1 0 0 0 0 0 0 0 0 0 1 1 3 0 0
803 460 394 286 229 172 227 218 169 258 225 160 39 0 0 0 0 0 0 0 0 0 0 0 0 3 4 3 0 0 0 0 0 0 1 1 0 0
531 185 95 36 104 67 69 215 198 293 27 0 0 0 0 0 0 0 0 0 0 0 0 0 0 0 0 0 0 0 0 0 0 0 0 0 0 0
459 114 2 15 1 6 51 79 227 72 0 0 0 0 0 0 0 0 0 0 0 0 0 0 0 0 0 0 0 0 0 0 0 0 0 0 1 0
231 51 0 0 2 121 111 167 223 1 0 0 0 0 0 0 0 0 0 0 0 0 0 0 0 0 0 0 0 0 0 0 0 0 0 0 0 9
39 40 6 0 48 196 223 196 13 2 0 0 0 0 0 0 0 0 0 0 0 0 0 0 0 0 0 0 0 0 0 0 0 0 0 0 0 0
CIN
-3 -0 -11 -2 -2 -5 -1 -6 -18 -7 -26 -33 -15 -8 -5 -2 -8 -25 -28 -71 -96 -147 -235 -263 -230 -185 -152 -0 -0 -137 -154 -143 -144 -136 -127 -0 -0 -0
-3 -5 -4 -1 -1 -1 -1 -4 -12 -13 -5 -6 -10 -6 -4 -1 -16 -13 -2 -21 -93 -91 -146 -212 -190 -215 -172 -0 -0 -0 -0 -0 -0 -0 -0 -0 -0 -0
-6 -2 -1 -0 -3 -2 -1 -5 -4 -3 -1 -1 -14 -11 -11 -8 -6 -10 -3 -3 -15 -85 -143 -185 -0 -210 -203 -232 -0 -0 -0 -0 -0 -0 -0 -0 -0 -0
-1 -0 -1 -2 -8 -10 -9 -7 -2 -2 -4 -0 -2 -3 -8 -4 -0 -1 -1 -1 -3 -43 -135 -127 -160 -209 -215 -222 -0 -0 -0 -0 -0 -0 -0 -0 -0 -0
-1 -2 -1 -1 -1 -1 -6 -2 -5 -6 -2 -4 -1 -4 -6 -5 -7 -9 -6 -18 -14 -15 -69 -102 -109 -159 -189 -252 -0 -0 -0 -0 -0 -0 -0 -0 -0 -0
-1 -1 -0 -1 -1 -2 -4 -4 -5 -13 -1 -1 -2 -2 -3 -4 -10 -4 -4 -20 -20 -3 -40 -27 -83 -111 -145 -199 -0 -0 -0 -0 -0 -0 -0 -0 -0 -0
-5 -1 -1 -1 -3 -2 -1 -3 -2 -5 -1 -1 -7 -16 -6 -5 -3 -6 -2 -2 -2 -4 -1 -3 -31 -51 -82 -162 -128 -68 -0 -0 -0 -0 -0 -0 -0 -0
-2 -1 -1 -3 -7 -9 -10 -28 -32 -13 -7 -8 -1 -2 -7 -2 -2 -6 -8 -14 -10 -14 -3 -8 -6 -4 -1 -7 -25 -43 -124 -0 -0 -0 -0 -0 -0 -0
-5 -7 -3 -1 -10 -7 -23 -32 -48 -78 -76 -16 -3 -9 -10 -13 -16 -21 -9 -11 -11 -13 -3 -9 -9 -8 -2 -9 -65 -107 -151 -0 -0 -0 -0 -0 -0 -0
-8 -4 -4 -0 -2 -2 -5 -2 -1 -2 -20 -35 -37 -33 -3 -5 -9 -5 -11 -10 -6 -5 -2 -5 -8 -2 -2 -52 -0 -0 -0 -0 -0 -0 -0 -0 -0 -0
-30 -8 -2 -2 -12 -16 -6 -3 -10 -7 -6 -10 -17 -20 -34 -32 -32 -10 -14 -9 -6 -21 -13 -5 -1 -8 -5 -3 -82 -0 -0 -0 -0 -0 -0 -0 -0 -0
-1 -10 -9 -9 -9 -26 -25 -5 -6 -7 -3 -2 -7 -42 -86 -67 -103 -28 -4 -6 -1 -0 -11 -12 -1 -2 -13 -0 -18 -38 -1 -0 -0 -0 -0 -0 -0 -0
-2 -13 -8 -16 -42 -32 -46 -13 -6 -27 -7 -4 -1 -3 -1 -0 -2 -17 -0 -1 -0 -1 -54 -80 -71 -0 -0 -0 -0 -0 -0 -0 -0 -1 -0 -0 -0 -0
-7 -2 -9 -60 -97 -99 -93 -59 -75 -87 -21 -5 -1 -1 -2 -1 -0 -5 -34 -65 -126 -149 -0 -0 -0 -0 -0 -0 -0 -1 -0 -1 -0 -0 -0 -0 -0 -0
-26 -38 -69 -113 -137 -137 -161 -187 -35 -129 -66 -16 -1 -6 -6 -1 -1 -50 -178 -0 -1 -1 -0 -0 -0 -1 -0 -0 -0 -0 -0 -0 -2 -0 -0 -0 -0 -0
-245 -120 -127 -114 -87 -140 -90 -221 -152 -25 -4 -9 -2 -6 -1 -10 -38 -84 -0 -0 -0 -0 -0 -0 -0 -0 -1 -0 -0 -1 -1 -0 -0 -0 -0 -0 -0 -0
-88 -10 -25 -25 -15 -35 -15 -37 -34 -11 -6 -2 -6 -10 -5 -123 -0 -0 -0 -0 -0 -0 -0 -0 -0 -0 -0 -0 -0 -0 -0 -0 -0 -0 -0 -0 -0 -0
-17 -0 -23 -34 -32 -19 -28 -56 -13 -4 -4 -4 -2 -2 -51 -0 -0 -0 -0 -0 -0 -0 -0 -2 -0 -0 -0 -0 -0 -0 -0 -0 -0 -0 -1 -0 -0 -0
-21 -16 -27 -37 -55 -56 -33 -29 -29 -11 -10 -29 -109 -0 -0 -0 -0 -0 -0 -0 -0 -0 -0 -0 -0 -1 -0 -2 -0 -0 -0 -0 -0 -0 -1 -1 -0 -0
-54 -52 -77 -113 -99 -137 -125 -51 -30 -30 -152 -23 -0 -0 -0 -0 -0 -0 -0 -0 -0 -0 -0 -0 -0 -0 -0 -0 -0 -0 -0 -0 -0 -0 -0 -0 -0 -0
-71 -102 -36 -66 -0 -1 -144 -137 -52 -114 -0 -0 -0 -0 -0 -0 -0 -0 -0 -0 -0 -0 -0 -0 -0 -0 -0 -0 -0 -0 -0 -0 -0 -0 -0 -0 -3 -0
-121 -183 -0 -0 -1 -116 -118 -78 -54 -3 -0 -0 -0 -0 -0 -0 -0 -0 -0 -0 -0 -0 -0 -0 -0 -0 -0 -0 -0 -0 -0 -0 -0 -0 -0 -0 -0 -7
-143 -185 -196 -0 -110 -82 -105 -87 -1 -1 -0 -0 -0 -0 -0 -0 -0 -0 -0 -0 -0 -0 -0 -0 -1 -0 -0 -0 -0 -0 -0 -0 -0 -0 -0 -0 -0 -0
Wind_Speed
10 19 21 18 18 20 20 13 15 20 18 15 10 10 10 7 6 7 9 13 12 11 10 11 11 11 10 8 6 4 2 1 1 1 2 4 5 7
16 13 21 19 14 12 17 23 11 23 21 15 13 11 10 16 7 5 4 6 5 5 7 5 7 7 7 5 5 4 3 2 3 4 6 7 9 10
25 8 16 21 20 15 16 22 23 23 25 18 8 11 12 12 12 11 6 4 3 6 7 8 6 5 7 9 8 6 4 4 5 6 7 8 9 11
28 22 16 12 7 5 21 22 22 21 23 21 23 16 10 7 13 15 13 26 3 4 5 2 4 4 5 6 5 5 5 6 7 8 11 12 14 15
23 20 21 17 15 12 3 22 16 12 7 15 21 10 17 6 10 13 12 9 8 5 0 3 2 3 4 5 5 6 7 8 9 10 12 14 14 15
17 25 21 21 17 18 3 9 13 15 24 21 24 23 14 16 12 22 15 5 8 15 5 3 2 2 3 5 6 7 8 9 11 12 14 16 17 19
31 15 18 22 23 20 29 9 22 10 1 8 2 5 9 13 17 23 25 25 21 17 16 18 8 9 10 6 6 6 8 9 12 15 17 20 22 23
25 23 24 24 22 24 29 35 30 25 25 28 28 27 24 20 20 23 25 26 23 19 19 18 26 28 27 19 15 10 11 13 19 22 24 25 26 26
19 21 26 24 10 12 12 7 13 16 12 19 23 24 28 22 20 22 21 22 23 24 24 24 20 21 22 28 19 16 18 20 23 25 27 28 29 29
32 22 19 29 30 19 22 20 19 19 12 9 9 12 14 18 17 17 18 21 21 20 17 18 22 21 24 21 22 19 21 22 24 26 27 28 29 30
29 33 32 28 29 31 27 26 26 23 13 8 9 16 16 15 14 17 17 18 22 20 21 24 21 25 26 24 18 19 20 22 23 25 28 31 34 32
24 28 35 33 32 28 26 23 28 28 29 22 19 20 18 16 16 15 16 19 20 23 18 20 20 23 24 19 15 16 19 21 22 26 29 31 33 26
23 20 23 24 24 27 23 21 27 31 32 25 22 18 16 14 12 15 15 17 18 15 18 18 20 19 19 18 22 26 24 27 27 27 25 28 28 27
27 26 26 26 27 26 24 26 29 32 30 27 24 20 18 14 12 12 14 15 20 17 17 18 20 21 20 21 22 22 26 26 25 25 26 26 24 22
21 22 19 14 17 24 27 27 28 26 21 16 15 16 12 9 11 11 13 14 17 18 17 18 19 19 20 22 23 22 24 21 22 25 24 24 24 24
18 19 16 15 18 23 24 22 23 17 21 20 18 14 9 10 10 10 11 12 14 15 16 16 17 17 18 18 19 22 22 21 22 23 22 21 21 22
12 13 16 14 16 19 19 23 21 18 18 18 16 9 9 10 10 11 11 12 12 13 13 13 14 16 17 18 18 19 20 19 20 21 20 21 21 21
11 13 16 16 16 16 17 17 22 21 18 16 12 10 11 8 8 10 11 11 12 12 12 11 12 13 15 14 17 18 17 18 19 19 19 21 21 21
12 16 16 13 14 16 15 15 15 13 13 14 11 9 7 7 7 9 9 9 10 11 12 13 12 10 16 16 13 14 16 15 15 17 18 19 20 20
16 19 17 19 17 20 16 9 9 9 11 10 9 7 6 7 9 8 8 8 8 9 10 13 15 15 16 20 18 14 12 13 14 15 14 16 17 18
20 22 21 22 22 17 14 14 11 8 8 8 8 7 7 8 8 8 9 11 10 9 11 11 12 13 18 18 16 12 9 10 13 16 16 15 13 14
23 20 21 22 21 14 13 11 8 8 6 6 8 8 7 7 8 7 8 10 8 9 11 12 11 14 14 14 16 18 16 10 10 11 11 13 17 20
22 14 22 23 20 14 10 10 10 8 6 6 6 7 8 9 8 7 6 7 8 9 12 13 15 12 15 16 18 20 19 13 14 11 11 5 6 9
Wind_Direction
327 274 261 284 297 289 297 329 309 259 282 141 13 94 76 47 21 27 133 158 159 163 169 175 177 179 180 176 173 172 176 198 277 302 312 327 334 338
276 308 271 285 318 337 309 252 352 262 282 313 331 35 41 311 29 48 95 16 135 158 165 167 172 177 183 195 198 200 214 276 301 311 320 322 325 328
254 340 297 279 284 314 300 265 261 248 254 299 42 2 2 346 342 351 28 69 95 151 168 172 175 178 188 196 202 214 242 269 284 299 309 313 315 321
243 276 299 318 343 9 286 274 272 278 266 291 281 319 8 32 335 328 335 252 62 151 149 170 189 209 213 217 227 244 265 279 287 298 310 313 314 315
275 282 283 296 305 318 78 268 302 308 2 310 300 345 322 41 1 341 342 360 357 6 55 177 309 290 283 277 265 269 268 273 289 292 302 306 306 307
293 276 287 288 300 298 352 157 290 300 278 296 286 291 324 324 336 303 331 5 0 322 359 359 330 307 288 271 276 272 276 281 290 296 302 305 308 310
263 297 295 290 287 293 266 314 290 318 322 332 2 336 338 326 319 306 304 306 316 329 330 326 335 328 329 299 307 290 299 305 312 313 313 313 313 313
282 286 287 289 292 290 279 254 276 290 289 282 283 287 302 313 316 309 309 309 316 335 326 328 319 315 318 329 326 315 319 319 322 322 321 319 318 317
289 290 284 288 284 296 299 278 298 299 299 302 301 301 297 311 314 313 317 315 316 316 321 321 326 324 326 324 339 335 330 328 326 327 326 323 321 320
275 286 288 281 281 294 292 295 298 301 301 292 286 300 308 311 315 320 320 318 320 323 324 321 323 323 326 336 335 334 330 330 332 332 331 330 328 325
279 275 277 283 281 280 288 288 293 297 303 283 284 304 304 304 306 312 313 315 315 318 320 321 322 323 323 325 336 341 339 337 336 335 332 329 325 325
284 281 274 277 282 283 284 287 287 291 293 301 305 306 307 306 304 304 309 311 315 318 322 323 327 329 328 332 340 348 345 343 340 337 334 332 329 336
285 287 288 291 288 283 281 282 286 288 290 300 305 309 311 316 317 319 316 316 319 322 329 330 329 330 330 328 328 327 333 332 335 337 345 342 340 344
280 288 293 297 295 282 277 281 285 286 290 296 301 307 311 314 320 324 327 328 323 327 333 330 327 328 328 329 330 333 330 335 340 345 344 345 352 356
283 293 301 310 305 283 275 281 285 289 296 300 303 307 313 320 327 330 330 332 328 328 330 330 327 330 330 328 327 333 336 343 350 347 352 354 354 353
284 293 300 303 294 286 284 288 288 292 292 295 300 307 318 321 320 323 325 330 329 332 335 335 333 334 334 334 333 332 338 349 352 356 1 5 4 2
273 289 297 299 296 291 289 285 289 289 291 292 299 310 319 321 323 326 325 328 328 332 339 343 343 336 334 330 332 333 343 356 3 4 9 6 9 13
272 285 293 295 293 291 289 290 281 280 288 294 301 307 313 321 325 329 331 329 330 333 335 342 342 339 332 333 331 330 349 360 10 16 15 9 13 21
279 284 288 291 290 288 286 286 287 288 293 297 302 307 313 319 323 329 331 331 331 335 333 332 328 329 321 323 337 338 342 359 11 11 10 8 8 14
281 282 284 284 284 281 283 283 285 287 294 295 300 302 306 312 319 320 327 330 331 336 333 325 318 319 318 315 320 333 347 348 359 3 8 9 9 13
276 279 279 277 278 282 281 287 285 283 294 289 289 292 300 306 312 316 321 324 328 331 325 320 318 319 315 319 322 328 338 349 345 341 347 347 353 358
272 276 273 273 277 279 286 284 283 290 287 279 285 289 295 300 304 307 311 318 318 321 321 320 323 320 317 319 319 320 326 337 345 345 341 341 338 336
269 271 268 270 274 276 281 279 284 281 280 276 281 289 295 298 299 302 303 309 317 315 312 308 308 315 313 312 313 316 319 327 330 333 334 334 348 349